星链-33531 (STARLINK-33531)

导读

STARLINK-33531是美国SpaceX星链星座的成员卫星,于2025年3月31日发射入轨,隶属于美国太空探索技术公司打造的星链互联网卫星星座。星链系统旨在为全球用户提供覆盖偏远地区、海洋等区域的低延迟高速卫星互联网服务,该卫星承担着扩容星座网络覆盖与带宽的任务,进一步完善全球卫星互联网通信布局。

基本信息
目录编号:
63399
目录名称:
STARLINK-33531
国际标识:
2025-065A
轨道中心:
EARTH
卫星名称:
星链-33531
卫星全名:
星链-33531 (STARLINK-33531)
卫星状态:
在轨 (已飞行440 天)
发射日期:
2025-03-31 UTC
国别 :
美国 (US)
星等 :
--
轨道信息
数据来源 国际轨道数据
星历时间: 2026-06-13T23:06:45+0800
16小时前
查看轨道信息
半长轴: 6861.169km
偏心率: 0.0001542
轨道倾角: 43.001°
近地点辐角 111.210°
升交点赤经 285.183°
平近点角 248.892°
近地点: 481.974km
远地点: 484.09km
周期: 94.266分钟
每日圈数: 15.275858
详细信息
固有亮度:
5
最大亮度:
2.5
卫星平台:
Starlink V1.0
覆盖范围:
全球
运营商:
太空探索技术公司
运营商所在国:
美国
制造商(研发单位):
太空探索技术公司
制造商所在国:
美国
使用方式:
暂无
卫星简介
Starlink 计划是 SpaceX 推出的全球卫星互联网项目,通过发射低轨道卫星,为全球尤其是偏远地区提供高速、低延迟的互联网服务。自 2019 年起,Starlink 已部署数千颗卫星,旨在缩小全球数字鸿沟,推动互联网普及。该项目还为军事、航空等行业提供通信支持,带来广泛经济效益。
2D轨道图
3D轨道图
轨道高度分析图
轨道倾角分析图
轨道综合分析图
查看轨道综合分析图